"read_dt","SO2 (ppb)","flags","PMT voltage (V)","lamp voltage (V)","lamp intensity (Hz)","internal temp (C)","react chamber temp (C)","sample flow (l/min)","pres (mmHg)","SO2 bkg (ppb)","SO2 coefficient"
2014-10-29 00:00:00,1851E-3,5C000000,-0724,0827,12317,026.8,045.4,0.477,731.3,01.19,0.508
2014-10-29 00:01:00,1807E-3,5C000000,-0724,0828,12143,026.8,045.4,0.477,731.3,01.19,0.508
2014-10-29 00:02:00,1823E-3,5C000000,-0724,0828,12285,026.8,045.4,0.477,731.2,01.19,0.508
2014-10-29 00:03:00,1805E-3,5C000000,-0724,0828,12350,026.8,045.4,0.477,731.3,01.19,0.508
2014-10-29 00:04:00,1849E-3,5C000000,-0724,0828,12218,026.8,045.4,0.477,731.3,01.19,0.508
2014-10-29 00:05:00,1745E-3,5C000000,-0724,0828,12327,026.8,045.4,0.477,731.2,01.19,0.508
2014-10-29 00:06:00,1827E-3,5C000000,-0724,0828,12198,026.8,045.4,0.477,731.2,01.19,0.508
2014-10-29 00:07:00,1703E-3,5C000000,-0724,0828,12229,026.8,045.4,0.477,731.2,01.19,0.508
2014-10-29 00:08:00,1940E-3,5C000000,-0724,0829,12387,026.8,045.4,0.477,731.3,01.19,0.508
2014-10-29 00:09:00,1846E-3,5C000000,-0724,0827,12195,026.8,045.4,0.477,731.2,01.19,0.508
2014-10-29 00:10:00,1787E-3,5C000000,-0724,0828,12129,026.8,045.4,0.477,731.2,01.19,0.508
2014-10-29 00:11:00,1831E-3,5C000000,-0724,0828,12345,026.8,045.4,0.477,731.1,01.19,0.508
2014-10-29 00:12:00,1907E-3,5C000000,-0724,0827,12267,026.8,045.4,0.477,731.1,01.19,0.508
2014-10-29 00:13:00,1922E-3,5C000000,-0724,0829,12096,026.8,045.4,0.477,731.1,01.19,0.508
2014-10-29 00:14:00,2003E-3,5C000000,-0724,0828,12211,026.8,045.4,0.477,731.2,01.19,0.508
2014-10-29 00:15:00,1691E-3,5C000000,-0724,0829,12044,026.8,045.4,0.477,731.2,01.19,0.508
2014-10-29 00:16:00,1836E-3,5C000000,-0724,0828,12115,026.8,045.4,0.477,731.2,01.19,0.508
2014-10-29 00:17:00,1738E-3,5C000000,-0724,0828,12094,026.8,045.4,0.477,731.2,01.19,0.508
2014-10-29 00:18:00,1890E-3,5C000000,-0724,0828,12129,026.8,045.4,0.477,731.2,01.19,0.508
2014-10-29 00:19:00,1767E-3,5C000000,-0724,0829,12212,026.8,045.4,0.477,731.1,01.19,0.508
2014-10-29 00:20:00,1896E-3,5C000000,-0724,0828,12106,026.8,045.4,0.477,731.2,01.19,0.508
2014-10-29 00:21:00,1865E-3,5C000000,-0724,0829,12212,026.8,045.4,0.477,731.2,01.19,0.508
2014-10-29 00:22:00,1840E-3,5C000000,-0724,0829,12237,026.8,045.4,0.477,731.1,01.19,0.508
2014-10-29 00:23:00,1747E-3,5C000000,-0724,0828,12249,026.8,045.4,0.477,731.1,01.19,0.508
2014-10-29 00:24:00,1903E-3,5C000000,-0724,0829,12146,026.8,045.4,0.477,731.2,01.19,0.508
2014-10-29 00:25:00,1858E-3,5C000000,-0724,0829,12310,026.8,045.4,0.477,731.2,01.19,0.508
2014-10-29 00:26:00,1786E-3,5C000000,-0724,0828,12135,026.8,045.4,0.477,731.2,01.19,0.508
2014-10-29 00:27:00,1872E-3,5C000000,-0724,0828,12206,026.8,045.4,0.477,731.2,01.19,0.508
2014-10-29 00:28:00,1859E-3,5C000000,-0724,0828,12176,026.8,045.4,0.477,731.2,01.19,0.508
2014-10-29 00:29:00,1726E-3,5C000000,-0724,0828,12167,026.8,045.4,0.477,731.2,01.19,0.508
2014-10-29 00:30:00,1728E-3,5C000000,-0724,0829,12311,026.8,045.4,0.477,731.3,01.19,0.508
2014-10-29 00:31:00,1828E-3,5C000000,-0724,0828,12262,026.8,045.4,0.477,731.3,01.19,0.508
2014-10-29 00:32:00,1829E-3,5C000000,-0724,0828,12156,026.8,045.4,0.477,731.3,01.19,0.508
2014-10-29 00:33:00,1879E-3,5C000000,-0724,0828,12162,026.8,045.4,0.477,731.4,01.19,0.508
2014-10-29 00:34:00,1793E-3,5C000000,-0724,0829,12327,026.8,045.4,0.477,731.4,01.19,0.508
2014-10-29 00:35:00,1805E-3,5C000000,-0724,0828,12292,026.8,045.4,0.477,731.4,01.19,0.508
2014-10-29 00:36:00,1708E-3,5C000000,-0724,0828,12318,026.8,045.4,0.477,731.4,01.19,0.508
2014-10-29 00:37:00,1778E-3,5C000000,-0724,0827,12143,026.8,045.4,0.477,731.4,01.19,0.508
2014-10-29 00:38:00,1878E-3,5C000000,-0724,0827,12081,026.8,045.4,0.477,731.5,01.19,0.508
2014-10-29 00:39:00,1914E-3,5C000000,-0724,0828,12260,026.8,045.4,0.477,731.6,01.19,0.508
2014-10-29 00:40:00,1666E-3,5C000000,-0724,0828,12300,026.8,045.4,0.477,731.5,01.19,0.508
2014-10-29 00:41:00,1901E-3,5C000000,-0724,0828,12281,026.8,045.4,0.478,731.6,01.19,0.508
2014-10-29 00:42:00,1916E-3,5C000000,-0724,0827,12358,026.8,045.4,0.477,731.6,01.19,0.508
2014-10-29 00:43:00,2010E-3,5C000000,-0724,0828,12261,026.8,045.4,0.477,731.6,01.19,0.508
2014-10-29 00:44:00,1825E-3,5C000000,-0724,0828,12103,026.8,045.4,0.477,731.6,01.19,0.508
2014-10-29 00:45:00,1756E-3,5C000000,-0724,0828,12345,026.8,045.4,0.477,731.6,01.19,0.508
2014-10-29 00:46:00,1672E-3,5C000000,-0724,0828,12136,026.8,045.4,0.477,731.6,01.19,0.508
2014-10-29 00:47:00,1892E-3,5C000000,-0724,0827,12221,026.8,045.4,0.477,731.6,01.19,0.508
2014-10-29 00:48:00,1732E-3,5C000000,-0724,0828,12158,026.8,045.4,0.477,731.6,01.19,0.508
2014-10-29 00:49:00,1653E-3,5C000000,-0724,0828,12290,026.8,045.4,0.477,731.6,01.19,0.508
2014-10-29 00:50:00,1799E-3,5C000000,-0724,0827,12230,026.8,045.4,0.477,731.6,01.19,0.508
2014-10-29 00:51:00,1707E-3,5C000000,-0724,0828,12157,026.8,045.4,0.477,731.6,01.19,0.508
2014-10-29 00:52:00,1756E-3,5C000000,-0724,0828,12168,026.8,045.4,0.477,731.6,01.19,0.508
2014-10-29 00:53:00,1719E-3,5C000000,-0724,0827,11931,026.8,045.4,0.477,731.6,01.19,0.508
2014-10-29 00:54:00,1759E-3,5C000000,-0724,0827,12373,026.8,045.4,0.477,731.7,01.19,0.508
2014-10-29 00:55:00,1849E-3,5C000000,-0724,0828,12240,026.8,045.4,0.477,731.6,01.19,0.508
2014-10-29 00:56:00,1749E-3,5C000000,-0724,0828,12139,026.8,045.4,0.477,731.7,01.19,0.508
2014-10-29 00:57:00,1880E-3,5C000000,-0724,0827,12400,026.8,045.4,0.477,731.6,01.19,0.508
2014-10-29 00:58:00,1768E-3,5C000000,-0724,0829,12023,026.8,045.4,0.477,731.6,01.19,0.508
2014-10-29 00:59:00,1835E-3,5C000000,-0724,0828,12216,026.8,045.4,0.477,731.6,01.19,0.508
2014-10-29 01:00:00,1954E-3,5C000000,-0724,0828,12139,026.8,045.4,0.477,731.7,01.19,0.508
2014-10-29 01:01:00,1765E-3,5C000000,-0724,0827,12156,026.8,045.4,0.477,731.7,01.19,0.508
2014-10-29 01:02:00,1762E-3,5C000000,-0724,0827,12333,026.8,045.4,0.477,731.8,01.19,0.508
2014-10-29 01:03:00,1744E-3,5C000000,-0724,0828,12181,026.8,045.4,0.477,731.7,01.19,0.508
2014-10-29 01:04:00,1752E-3,5C000000,-0724,0828,12120,026.8,045.4,0.477,731.7,01.19,0.508
2014-10-29 01:05:00,1828E-3,5C000000,-0724,0828,12386,026.8,045.4,0.477,731.7,01.19,0.508
2014-10-29 01:06:00,1758E-3,5C000000,-0724,0827,12285,026.8,045.4,0.477,731.7,01.19,0.508
2014-10-29 01:07:00,1779E-3,5C000000,-0724,0828,12264,026.8,045.4,0.478,731.7,01.19,0.508
2014-10-29 01:08:00,1896E-3,5C000000,-0724,0828,12142,026.8,045.4,0.477,731.6,01.19,0.508
2014-10-29 01:09:00,1687E-3,5C000000,-0724,0828,12213,026.8,045.4,0.477,731.7,01.19,0.508
2014-10-29 01:10:00,1739E-3,5C000000,-0724,0829,12315,026.8,045.4,0.477,731.6,01.19,0.508
2014-10-29 01:11:00,1937E-3,5C000000,-0724,0828,12127,026.8,045.4,0.477,731.6,01.19,0.508
2014-10-29 01:12:00,1752E-3,5C000000,-0724,0828,12088,026.8,045.4,0.477,731.6,01.19,0.508
2014-10-29 01:13:00,1708E-3,5C000000,-0724,0827,12234,026.8,045.4,0.477,731.5,01.19,0.508
2014-10-29 01:14:00,1810E-3,5C000000,-0724,0829,12301,026.8,045.4,0.477,731.6,01.19,0.508
2014-10-29 01:15:00,1732E-3,5C000000,-0724,0827,12298,026.8,045.4,0.477,731.5,01.19,0.508
2014-10-29 01:16:00,1849E-3,5C000000,-0724,0827,12119,026.8,045.4,0.477,731.6,01.19,0.508
2014-10-29 01:17:00,1855E-3,5C000000,-0724,0827,12094,026.9,045.4,0.477,731.5,01.19,0.508
2014-10-29 01:18:00,1836E-3,5C000000,-0724,0828,12290,026.9,045.4,0.477,731.6,01.19,0.508
2014-10-29 01:19:00,1611E-3,5C000000,-0724,0828,12219,026.8,045.4,0.477,731.5,01.19,0.508
2014-10-29 01:20:00,1706E-3,5C000000,-0724,0828,12231,026.8,045.4,0.477,731.6,01.19,0.508
2014-10-29 01:21:00,1748E-3,5C000000,-0724,0827,12190,026.8,045.4,0.477,731.6,01.19,0.508
2014-10-29 01:22:00,1750E-3,5C000000,-0724,0827,12271,026.8,045.4,0.477,731.6,01.19,0.508
2014-10-29 01:23:00,1748E-3,5C000000,-0724,0827,12273,026.8,045.4,0.477,731.6,01.19,0.508
2014-10-29 01:24:00,1728E-3,5C000000,-0724,0827,12221,026.8,045.4,0.477,731.6,01.19,0.508
2014-10-29 01:25:00,1672E-3,5C000000,-0724,0828,12382,026.8,045.4,0.477,731.6,01.19,0.508
2014-10-29 01:26:00,1799E-3,5C000000,-0724,0829,12297,026.8,045.4,0.477,731.6,01.19,0.508
2014-10-29 01:27:00,1799E-3,5C000000,-0724,0828,12098,026.8,045.4,0.477,731.6,01.19,0.508
2014-10-29 01:28:00,1709E-3,5C000000,-0724,0827,12274,026.8,045.4,0.477,731.6,01.19,0.508
2014-10-29 01:29:00,1871E-3,5C000000,-0724,0827,12233,026.8,045.4,0.477,731.6,01.19,0.508
2014-10-29 01:30:00,1798E-3,5C000000,-0724,0827,12376,026.8,045.4,0.477,731.5,01.19,0.508
2014-10-29 01:31:00,1862E-3,5C000000,-0724,0827,12189,026.8,045.4,0.478,731.6,01.19,0.508
2014-10-29 01:32:00,1792E-3,5C000000,-0724,0827,12159,026.8,045.4,0.477,731.6,01.19,0.508
2014-10-29 01:33:00,1824E-3,5C000000,-0724,0826,12161,026.8,045.4,0.477,731.6,01.19,0.508
2014-10-29 01:34:00,1956E-3,5C000000,-0724,0828,12336,026.8,045.4,0.477,731.6,01.19,0.508
2014-10-29 01:35:00,1782E-3,5C000000,-0724,0828,12139,026.8,045.4,0.477,731.5,01.19,0.508
2014-10-29 01:36:00,1730E-3,5C000000,-0724,0828,12282,026.8,045.4,0.477,731.5,01.19,0.508
2014-10-29 01:37:00,1779E-3,5C000000,-0724,0828,12323,026.8,045.4,0.478,731.6,01.19,0.508
2014-10-29 01:38:00,1613E-3,5C000000,-0724,0827,12236,026.8,045.4,0.477,731.6,01.19,0.508
2014-10-29 01:39:00,1730E-3,5C000000,-0724,0827,12203,026.8,045.4,0.477,731.5,01.19,0.508
2014-10-29 01:40:00,1711E-3,5C000000,-0724,0828,12213,026.8,045.4,0.477,731.6,01.19,0.508
2014-10-29 01:41:00,1847E-3,5C000000,-0724,0828,12310,026.8,045.4,0.477,731.6,01.19,0.508
2014-10-29 01:42:00,1749E-3,5C000000,-0724,0826,12193,026.8,045.4,0.477,731.6,01.19,0.508
2014-10-29 01:43:00,1736E-3,5C000000,-0724,0828,12011,026.8,045.4,0.478,731.6,01.19,0.508
2014-10-29 01:44:00,1867E-3,5C000000,-0724,0828,12126,026.8,045.4,0.478,731.7,01.19,0.508
2014-10-29 01:45:00,1913E-3,5C000000,-0724,0828,12151,026.8,045.4,0.477,731.7,01.19,0.508
2014-10-29 01:46:00,1696E-3,5C000000,-0724,0829,12271,026.8,045.4,0.477,731.7,01.19,0.508
2014-10-29 01:47:00,1826E-3,5C000000,-0724,0827,12243,026.8,045.4,0.477,731.7,01.19,0.508
2014-10-29 01:48:00,1799E-3,5C000000,-0724,0828,12283,026.8,045.4,0.477,731.7,01.19,0.508
2014-10-29 01:49:00,1716E-3,5C000000,-0724,0827,12369,026.8,045.4,0.477,731.7,01.19,0.508
2014-10-29 01:50:00,1763E-3,5C000000,-0724,0828,12298,026.8,045.4,0.478,731.7,01.19,0.508
2014-10-29 01:51:00,1807E-3,5C000000,-0724,0828,12234,026.8,045.4,0.478,731.8,01.19,0.508
2014-10-29 01:52:00,1704E-3,5C000000,-0724,0828,12430,026.8,045.4,0.477,731.8,01.19,0.508
2014-10-29 01:53:00,1796E-3,5C000000,-0724,0828,12287,026.8,045.4,0.477,731.8,01.19,0.508
2014-10-29 01:54:00,1678E-3,5C000000,-0724,0830,12076,026.8,045.4,0.477,731.8,01.19,0.508
2014-10-29 01:55:00,1743E-3,5C000000,-0724,0828,12272,026.8,045.4,0.477,731.8,01.19,0.508
2014-10-29 01:56:00,1789E-3,5C000000,-0724,0828,12218,026.8,045.4,0.478,731.8,01.19,0.508
2014-10-29 01:57:00,1765E-3,5C000000,-0724,0829,12208,026.8,045.4,0.478,731.9,01.19,0.508
2014-10-29 01:58:00,1836E-3,5C000000,-0724,0829,12077,026.8,045.4,0.477,731.9,01.19,0.508
2014-10-29 01:59:00,1886E-3,5C000000,-0724,0827,12200,026.8,045.4,0.477,731.9,01.19,0.508
2014-10-29 02:00:00,1831E-3,5C000000,-0724,0829,12181,026.8,045.4,0.477,731.9,01.19,0.508
2014-10-29 02:01:00,1816E-3,5C000000,-0724,0828,12316,026.8,045.4,0.477,731.9,01.19,0.508
2014-10-29 02:02:00,1647E-3,5C000000,-0724,0829,12350,026.8,045.4,0.478,732.0,01.19,0.508
2014-10-29 02:03:00,1636E-3,5C000000,-0724,0828,12140,026.8,045.4,0.478,732.0,01.19,0.508
2014-10-29 02:04:00,1675E-3,5C000000,-0724,0829,12381,026.8,045.4,0.477,732.0,01.19,0.508
2014-10-29 02:05:00,1871E-3,5C000000,-0724,0828,12150,026.8,045.4,0.477,732.0,01.19,0.508
2014-10-29 02:06:00,1826E-3,5C000000,-0724,0829,12180,026.8,045.4,0.477,732.0,01.19,0.508
2014-10-29 02:07:00,1693E-3,5C000000,-0724,0829,12474,026.8,045.4,0.477,732.0,01.19,0.508
2014-10-29 02:08:00,1882E-3,5C000000,-0724,0829,12208,026.8,045.4,0.478,732.0,01.19,0.508
2014-10-29 02:09:00,1805E-3,5C000000,-0724,0828,12290,026.8,045.4,0.477,732.0,01.19,0.508
2014-10-29 02:10:00,1842E-3,5C000000,-0724,0829,12326,026.8,045.4,0.477,732.0,01.19,0.508
2014-10-29 02:11:00,1827E-3,5C000000,-0724,0827,12245,026.8,045.4,0.477,732.0,01.19,0.508
2014-10-29 02:12:00,1791E-3,5C000000,-0724,0829,12283,026.8,045.4,0.477,732.0,01.19,0.508
2014-10-29 02:13:00,1716E-3,5C000000,-0724,0828,12176,026.8,045.4,0.477,732.0,01.19,0.508
2014-10-29 02:14:00,1769E-3,5C000000,-0724,0828,12273,026.8,045.4,0.478,732.0,01.19,0.508
2014-10-29 02:15:00,1754E-3,5C000000,-0724,0828,12081,026.8,045.4,0.477,732.0,01.19,0.508
2014-10-29 02:16:00,1959E-3,5C000000,-0724,0828,12316,026.8,045.4,0.477,732.0,01.19,0.508
2014-10-29 02:17:00,1926E-3,5C000000,-0724,0828,12095,026.8,045.4,0.477,732.0,01.19,0.508
2014-10-29 02:18:00,1814E-3,5C000000,-0724,0828,12253,026.8,045.4,0.477,732.0,01.19,0.508
2014-10-29 02:19:00,1791E-3,5C000000,-0724,0829,12208,026.8,045.4,0.478,732.0,01.19,0.508
2014-10-29 02:20:00,1838E-3,5C000000,-0724,0829,12171,026.8,045.4,0.478,732.0,01.19,0.508
2014-10-29 02:21:00,1810E-3,5C000000,-0724,0828,12113,026.8,045.4,0.477,731.9,01.19,0.508
2014-10-29 02:22:00,1746E-3,5C000000,-0724,0828,12238,026.8,045.4,0.477,731.9,01.19,0.508
2014-10-29 02:23:00,1835E-3,5C000000,-0724,0828,12299,026.8,045.4,0.477,732.0,01.19,0.508
2014-10-29 02:24:00,1753E-3,5C000000,-0724,0828,12320,026.8,045.4,0.477,731.9,01.19,0.508
2014-10-29 02:25:00,1850E-3,5C000000,-0724,0829,12209,026.8,045.4,0.478,731.9,01.19,0.508
2014-10-29 02:26:00,1721E-3,5C000000,-0724,0829,12297,026.9,045.4,0.477,731.9,01.19,0.508
2014-10-29 02:27:00,1707E-3,5C000000,-0724,0827,12244,026.8,045.4,0.477,731.9,01.19,0.508
2014-10-29 02:28:00,1807E-3,5C000000,-0724,0828,12253,026.8,045.4,0.477,732.0,01.19,0.508
2014-10-29 02:29:00,1826E-3,5C000000,-0724,0829,12254,026.9,045.4,0.477,732.0,01.19,0.508
2014-10-29 02:30:00,1974E-3,5C000000,-0724,0828,12390,026.8,045.4,0.477,732.0,01.19,0.508
2014-10-29 02:31:00,1775E-3,5C000000,-0724,0828,12222,026.9,045.4,0.478,731.9,01.19,0.508
2014-10-29 02:32:00,1785E-3,5C000000,-0724,0827,12107,026.9,045.4,0.478,732.0,01.19,0.508
2014-10-29 02:33:00,1860E-3,5C000000,-0724,0827,12215,026.9,045.4,0.477,732.0,01.19,0.508
2014-10-29 02:34:00,1900E-3,5C000000,-0724,0827,12286,026.9,045.4,0.477,732.0,01.19,0.508
2014-10-29 02:35:00,1687E-3,5C000000,-0724,0829,12252,026.8,045.4,0.477,732.0,01.19,0.508
2014-10-29 02:36:00,1705E-3,5C000000,-0724,0829,12168,026.8,045.4,0.478,732.0,01.19,0.508
2014-10-29 02:37:00,1816E-3,5C000000,-0724,0829,12052,026.9,045.4,0.477,732.0,01.19,0.508
2014-10-29 02:38:00,1786E-3,5C000000,-0724,0827,12236,026.9,045.4,0.477,731.9,01.19,0.508
2014-10-29 02:39:00,1823E-3,5C000000,-0724,0827,12240,026.8,045.4,0.477,732.0,01.19,0.508
2014-10-29 02:40:00,1795E-3,5C000000,-0724,0828,12120,026.8,045.4,0.477,731.9,01.19,0.508
2014-10-29 02:41:00,1765E-3,5C000000,-0724,0828,12328,026.9,045.4,0.477,731.9,01.19,0.508
2014-10-29 02:42:00,1762E-3,5C000000,-0724,0827,12260,026.9,045.4,0.477,731.9,01.19,0.508
2014-10-29 02:43:00,1832E-3,5C000000,-0724,0828,12147,026.8,045.4,0.477,731.9,01.19,0.508
2014-10-29 02:44:00,1772E-3,5C000000,-0724,0828,12231,026.9,045.4,0.477,731.9,01.19,0.508
2014-10-29 02:45:00,1749E-3,5C000000,-0724,0828,12270,026.9,045.4,0.477,731.9,01.19,0.508
2014-10-29 02:46:00,1843E-3,5C000000,-0724,0828,12361,026.9,045.4,0.477,731.9,01.19,0.508
2014-10-29 02:47:00,1787E-3,5C000000,-0724,0828,12176,026.8,045.4,0.478,731.9,01.19,0.508
2014-10-29 02:48:00,1788E-3,5C000000,-0724,0827,12222,026.8,045.4,0.477,732.0,01.19,0.508
2014-10-29 02:49:00,1872E-3,5C000000,-0724,0828,12163,026.8,045.4,0.477,732.0,01.19,0.508
2014-10-29 02:50:00,1833E-3,5C000000,-0724,0828,12276,026.8,045.4,0.477,731.9,01.19,0.508
2014-10-29 02:51:00,1939E-3,5C000000,-0724,0827,12193,026.8,045.4,0.477,732.0,01.19,0.508
2014-10-29 02:52:00,1810E-3,5C000000,-0724,0828,12303,026.9,045.4,0.478,731.9,01.19,0.508
2014-10-29 02:53:00,1783E-3,5C000000,-0724,0827,12187,026.8,045.4,0.477,732.1,01.19,0.508
2014-10-29 02:54:00,1864E-3,5C000000,-0724,0828,12054,026.8,045.4,0.477,732.0,01.19,0.508
2014-10-29 02:55:00,1879E-3,5C000000,-0724,0827,12216,026.9,045.4,0.477,732.1,01.19,0.508
2014-10-29 02:56:00,1867E-3,5C000000,-0724,0827,12294,026.9,045.4,0.477,732.1,01.19,0.508
2014-10-29 02:57:00,1668E-3,5C000000,-0724,0829,12213,026.9,045.4,0.478,732.0,01.19,0.508
2014-10-29 02:58:00,1827E-3,5C000000,-0724,0827,12156,026.8,045.4,0.477,732.2,01.19,0.508
2014-10-29 02:59:00,1880E-3,5C000000,-0724,0828,12320,026.8,045.4,0.477,732.2,01.19,0.508
2014-10-29 03:00:00,1755E-3,5C000000,-0724,0828,12151,026.8,045.4,0.477,732.1,01.19,0.508
2014-10-29 03:01:00,1793E-3,5C000000,-0724,0827,12316,026.8,045.4,0.478,732.2,01.19,0.508
2014-10-29 03:02:00,1783E-3,5C000000,-0724,0827,12191,026.8,045.4,0.478,732.2,01.19,0.508
2014-10-29 03:03:00,1751E-3,5C000000,-0724,0828,12178,026.8,045.4,0.477,732.2,01.19,0.508
2014-10-29 03:04:00,1803E-3,5C000000,-0724,0828,12318,026.8,045.4,0.477,732.2,01.19,0.508
2014-10-29 03:05:00,1827E-3,5C000000,-0724,0827,12188,026.8,045.5,0.477,732.2,01.19,0.508
2014-10-29 03:06:00,1735E-3,5C000000,-0724,0828,12168,026.8,045.4,0.478,732.3,01.19,0.508
2014-10-29 03:07:00,1888E-3,5C000000,-0724,0828,12201,026.8,045.4,0.477,732.3,01.19,0.508
2014-10-29 03:08:00,1822E-3,5C000000,-0724,0827,12357,026.8,045.4,0.477,732.3,01.19,0.508
2014-10-29 03:09:00,1802E-3,5C000000,-0724,0827,12260,026.8,045.4,0.477,732.3,01.19,0.508
2014-10-29 03:10:00,1804E-3,5C000000,-0724,0827,12080,026.8,045.4,0.478,732.2,01.19,0.508
2014-10-29 03:11:00,1755E-3,5C000000,-0724,0828,12214,026.8,045.4,0.478,732.3,01.19,0.508
2014-10-29 03:12:00,1833E-3,5C000000,-0724,0827,12406,026.8,045.4,0.477,732.3,01.19,0.508
2014-10-29 03:13:00,1934E-3,5C000000,-0724,0828,12211,026.8,045.4,0.477,732.2,01.19,0.508
2014-10-29 03:14:00,1826E-3,5C000000,-0724,0827,12382,026.8,045.4,0.477,732.4,01.19,0.508
2014-10-29 03:15:00,1823E-3,5C000000,-0724,0828,12259,026.8,045.4,0.478,732.2,01.19,0.508
2014-10-29 03:16:00,1709E-3,5C000000,-0724,0827,12171,026.8,045.4,0.477,732.2,01.19,0.508
2014-10-29 03:17:00,1820E-3,5C000000,-0724,0828,12130,026.8,045.4,0.477,732.3,01.19,0.508
2014-10-29 03:18:00,1926E-3,5C000000,-0724,0827,12075,026.8,045.4,0.477,732.4,01.19,0.508
2014-10-29 03:19:00,1871E-3,5C000000,-0724,0827,12232,026.8,045.4,0.478,732.4,01.19,0.508
2014-10-29 03:20:00,1800E-3,5C000000,-0724,0827,12281,026.8,045.4,0.477,732.4,01.19,0.508
2014-10-29 03:21:00,1839E-3,5C000000,-0724,0828,12323,026.8,045.4,0.477,732.4,01.19,0.508
2014-10-29 03:22:00,1780E-3,5C000000,-0724,0828,12088,026.8,045.4,0.477,732.4,01.19,0.508
2014-10-29 03:23:00,1746E-3,5C000000,-0724,0827,12258,026.8,045.4,0.478,732.4,01.19,0.508
2014-10-29 03:24:00,1961E-3,5C000000,-0724,0827,12374,026.8,045.4,0.478,732.3,01.19,0.508
2014-10-29 03:25:00,1866E-3,5C000000,-0724,0828,12226,026.8,045.4,0.477,732.3,01.19,0.508
2014-10-29 03:26:00,1773E-3,5C000000,-0724,0828,12209,026.8,045.4,0.477,732.4,01.19,0.508
2014-10-29 03:27:00,1898E-3,5C000000,-0724,0828,12169,026.8,045.4,0.478,732.3,01.19,0.508
2014-10-29 03:28:00,1846E-3,5C000000,-0724,0828,12178,026.8,045.4,0.478,732.3,01.19,0.508
2014-10-29 03:29:00,1854E-3,5C000000,-0724,0827,12130,026.8,045.4,0.477,732.0,01.19,0.508
2014-10-29 03:30:00,1705E-3,5C000000,-0724,0828,12117,026.8,045.4,0.477,732.2,01.19,0.508
2014-10-29 03:31:00,1962E-3,5C000000,-0724,0827,12304,026.8,045.4,0.477,732.2,01.19,0.508
2014-10-29 03:32:00,1803E-3,5C000000,-0724,0826,12154,026.8,045.4,0.478,732.2,01.19,0.508
2014-10-29 03:33:00,1865E-3,5C000000,-0724,0828,12116,026.8,045.4,0.478,732.2,01.19,0.508
2014-10-29 03:34:00,1960E-3,5C000000,-0724,0828,12397,026.8,045.4,0.477,732.3,01.19,0.508
2014-10-29 03:35:00,1940E-3,5C000000,-0724,0828,12077,026.8,045.4,0.477,732.4,01.19,0.508
2014-10-29 03:36:00,1722E-3,5C000000,-0724,0828,12292,026.8,045.4,0.478,732.4,01.19,0.508
2014-10-29 03:37:00,1957E-3,5C000000,-0724,0828,12429,026.8,045.4,0.478,732.5,01.19,0.508
2014-10-29 03:38:00,1822E-3,5C000000,-0724,0827,12286,026.8,045.4,0.477,732.4,01.19,0.508
2014-10-29 03:39:00,1866E-3,5C000000,-0724,0827,11995,026.8,045.4,0.477,732.4,01.19,0.508
2014-10-29 03:40:00,1899E-3,5C000000,-0724,0828,12126,026.8,045.4,0.478,732.4,01.19,0.508
2014-10-29 03:41:00,1984E-3,5C000000,-0724,0828,12346,026.8,045.4,0.478,732.5,01.19,0.508
2014-10-29 03:42:00,1766E-3,5C000000,-0724,0828,12226,026.8,045.4,0.477,732.4,01.19,0.508
2014-10-29 03:43:00,1790E-3,5C000000,-0724,0827,12419,026.8,045.4,0.477,732.5,01.19,0.508
2014-10-29 03:44:00,1887E-3,5C000000,-0724,0827,12094,026.8,045.4,0.478,732.5,01.19,0.508
2014-10-29 03:45:00,1798E-3,5C000000,-0724,0828,12303,026.8,045.4,0.478,732.6,01.19,0.508
2014-10-29 03:46:00,1936E-3,5C000000,-0724,0828,12290,026.7,045.4,0.478,732.5,01.19,0.508
2014-10-29 03:47:00,1878E-3,5C000000,-0724,0827,12099,026.8,045.4,0.477,732.5,01.19,0.508
2014-10-29 03:48:00,1898E-3,5C000000,-0724,0828,12264,026.8,045.4,0.478,732.6,01.19,0.508
2014-10-29 03:49:00,1750E-3,5C000000,-0724,0829,12006,026.8,045.4,0.478,732.5,01.19,0.508
2014-10-29 03:50:00,1908E-3,5C000000,-0724,0827,12241,026.8,045.4,0.477,732.6,01.19,0.508
2014-10-29 03:51:00,1857E-3,5C000000,-0724,0828,12269,026.8,045.4,0.478,732.6,01.19,0.508
2014-10-29 03:52:00,1857E-3,5C000000,-0724,0828,12314,026.8,045.4,0.478,732.6,01.19,0.508
2014-10-29 03:53:00,1933E-3,5C000000,-0724,0829,12293,026.8,045.4,0.478,732.5,01.19,0.508
2014-10-29 03:54:00,1920E-3,5C000000,-0724,0828,12036,026.8,045.4,0.477,732.5,01.19,0.508
2014-10-29 03:55:00,2010E-3,5C000000,-0724,0827,12164,026.8,045.4,0.477,732.5,01.19,0.508
2014-10-29 03:56:00,1906E-3,5C000000,-0724,0828,12178,026.8,045.4,0.478,732.5,01.19,0.508
2014-10-29 03:57:00,1822E-3,5C000000,-0724,0828,12304,026.8,045.4,0.478,732.5,01.19,0.508
2014-10-29 03:58:00,1944E-3,5C000000,-0724,0829,11874,026.8,045.4,0.477,732.5,01.19,0.508
2014-10-29 03:59:00,1943E-3,5C000000,-0724,0829,12201,026.8,045.4,0.477,732.4,01.19,0.508
2014-10-29 04:00:00,1975E-3,5C000000,-0724,0827,12210,026.8,045.4,0.478,732.5,01.19,0.508
2014-10-29 04:01:00,1902E-3,5C000000,-0724,0828,12160,026.8,045.4,0.478,732.6,01.19,0.508
2014-10-29 04:02:00,2046E-3,5C000000,-0724,0827,12227,026.8,045.4,0.477,732.5,01.19,0.508
2014-10-29 04:03:00,1896E-3,5C000000,-0724,0827,12227,026.8,045.4,0.477,732.5,01.19,0.508
2014-10-29 04:04:00,1991E-3,5C000000,-0724,0828,12279,026.8,045.4,0.478,732.4,01.19,0.508
2014-10-29 04:05:00,2004E-3,5C000000,-0724,0828,12067,026.9,045.4,0.478,732.5,01.19,0.508
2014-10-29 04:06:00,1873E-3,5C000000,-0724,0829,12395,026.8,045.4,0.477,732.6,01.19,0.508
2014-10-29 04:07:00,1956E-3,5C000000,-0724,0828,11951,026.8,045.4,0.477,732.5,01.19,0.508
2014-10-29 04:08:00,1797E-3,5C000000,-0724,0828,12285,026.8,045.4,0.478,732.4,01.19,0.508
2014-10-29 04:09:00,1968E-3,5C000000,-0724,0827,12240,026.8,045.4,0.478,732.2,01.19,0.508
2014-10-29 04:10:00,1895E-3,5C000000,-0724,0828,12156,026.8,045.4,0.477,732.4,01.19,0.508
2014-10-29 04:11:00,1854E-3,5C000000,-0724,0828,12391,026.8,045.4,0.477,732.5,01.19,0.508
2014-10-29 04:12:00,1973E-3,5C000000,-0724,0827,12152,026.8,045.4,0.478,732.5,01.19,0.508
2014-10-29 04:13:00,1928E-3,5C000000,-0724,0827,12092,026.8,045.4,0.478,732.5,01.19,0.508
2014-10-29 04:14:00,2016E-3,5C000000,-0724,0828,12247,026.8,045.4,0.478,732.6,01.19,0.508
2014-10-29 04:15:00,1899E-3,5C000000,-0724,0828,12242,026.8,045.4,0.477,732.5,01.19,0.508
2014-10-29 04:16:00,1874E-3,5C000000,-0724,0828,12362,026.8,045.4,0.478,732.6,01.19,0.508
2014-10-29 04:17:00,2024E-3,5C000000,-0724,0828,12054,026.8,045.4,0.478,732.6,01.19,0.508
2014-10-29 04:18:00,1981E-3,5C000000,-0724,0828,12190,026.8,045.4,0.478,732.7,01.19,0.508
2014-10-29 04:19:00,1915E-3,5C000000,-0724,0828,12136,026.9,045.4,0.477,732.7,01.19,0.508
2014-10-29 04:20:00,1908E-3,5C000000,-0724,0829,12323,026.8,045.4,0.477,732.8,01.19,0.508